Flag for U.S.A. Weather past 2 weeks in Wilmington, Delaware, U.S.A.

Now
54 °F

Overcast.


Feels Like: 49 °F
Forecast: 45 / 59 °F
Wind: 21 mph from Northwest

Location: New Castle County Airport


UV Index: 5 (Moderate)

Visibility: 10 mi


Pressure: 29.74 "Hg

Humidity: 47%

Dew point: 34 °F

Location of WilmingtonLocation

Historic Weather in Wilmington

°F

Wilmington temperature yesterday

Maximum temperature yesterday: 74 °F (at 1:51 PM)
Minimum temperature yesterday: 48 °F (at 4:51 AM)
Average temperature yesterday: 59 °F

Past Weeks' High & Low Weather Summary

 TemperatureHumidityPressure
High82 °F (Apr 13, 2:51 PM)97% (Apr 9, 6:51 AM)30.70 "Hg (Apr 9, 6:51 AM)
Low31 °F (Apr 16, 5:51 AM)19% (Apr 19, 4:51 PM)29.50 "Hg (Apr 8, 9:51 AM)
Average55 °F58%30.09 "Hg
* Reported Apr 8 9:51 AM — Apr 23 9:51 AM, Wilmington, Weather by CustomWeather, © 2014

Note: Actual official high and low records may vary slightly from our data, if they occured in-between our weather recording intervals... More about our weather records

Advertising

Historic Weather Conditions — Data for Previous 24 hours

 ConditionsComfort  
Time TempWeatherWind HumidityBarometerVisibility
9:51 AM
Apr 23
53 °FPassing clouds.23 mph47%29.73 "Hg10 mi
8:51 AM51 °FSunny.23 mph48%29.72 "Hg10 mi
7:51 AM50 °FPassing clouds.18 mph52%29.72 "Hg10 mi
6:51 AM48 °FClear.16 mph59%29.69 "Hg10 mi
5:51 AM49 °FClear.17 mph55%29.66 "Hg10 mi
4:51 AM49 °FClear.16 mph55%29.65 "Hg10 mi
3:51 AM50 °FClear.14 mph52%29.65 "Hg10 mi
2:51 AM51 °FPassing clouds.20 mph52%29.64 "Hg10 mi
1:51 AM56 °FPartly cloudy.21 mph47%29.64 "Hg10 mi
12:51 AM59 °FLight rain. Mostly cloudy.17 mph54%29.62 "Hg10 mi
11:51 PM
Apr 22
61 °FPassing clouds.15 mph56%29.61 "Hg10 mi
10:51 PM60 °FMostly cloudy.8 mph62%29.61 "Hg10 mi
9:51 PM60 °FPassing clouds.10 mph60%29.61 "Hg10 mi
8:51 PM59 °FPassing clouds.7 mph64%29.59 "Hg10 mi
7:51 PM61 °FLight rain. Partly sunny.20 mph60%29.63 "Hg10 mi
6:51 PM67 °FSunny.10 mph66%29.57 "Hg10 mi
5:51 PM66 °FPartly sunny.12 mph68%29.58 "Hg10 mi
4:51 PM65 °FOvercast.9 mph68%29.59 "Hg10 mi
3:51 PM67 °FLight rain. Overcast.12 mph61%29.61 "Hg10 mi
2:51 PM72 °FMostly cloudy.12 mph44%29.62 "Hg10 mi
1:51 PM74 °FSunny.7 mph41%29.62 "Hg10 mi
12:51 PM70 °FSunny.10 mph47%29.64 "Hg10 mi
11:51 AM67 °FSunny.7 mph51%29.67 "Hg10 mi
Weather by CustomWeather, © 2014

See weather overview